Regional Weather Roundup
Issued by NWS

Home | Current Version | Previous Version | Graphics & Text | Print | Product List | Glossary On
Versions: 1 2 3 4 5 6 7 8 9 10 11 12 13 14 15 16 17 18 19 20 21 22 23 24 25 26 27 28 29 30 31 32 33 34 35 36 37 38 39 40 41 42 43 44 45 46 47 48 49 50
000
ASUS43 KTOP 231808
RWRKS

WEATHER ROUNDUP FOR KANSAS
NATIONAL WEATHER SERVICE GOODLAND KS
100 PM CDT THU OCT 23 2014

NOTE:  "FAIR" INDICATES FEW OR NO CLOUDS BELOW 12,000 FEET WITH NO
SIGNIFICANT WEATHER AND/OR OBSTRUCTIONS TO VISIBILITY.

KSZ001>006-013>018-027>032-041>047-231900-
NORTHWEST KANSAS

CITY           SKY/WX    TMP DP  RH WIND       PRES   REMARKS
GOODLAND       SUNNY     71  44  37 S10       30.13F
6HR MIN TEMP:  42; 6HR MAX TEMP:  71;

HILL CITY      CLOUDY    61  58  90 SW8       30.12F
6HR MIN TEMP:  50; 6HR MAX TEMP:  61;

RUSSELL        MOSUNNY   72  58  61 VRB3      30.09F
6HR MIN TEMP:  57; 6HR MAX TEMP:  72;

$$

KSZ061>065-074>080-084>089-231900-
SOUTHWEST KANSAS

CITY           SKY/WX    TMP DP  RH WIND       PRES   REMARKS
DODGE CITY     CLOUDY    67  57  70 SE7       30.12F
6HR MIN TEMP:  57; 6HR MAX TEMP:  67;

ELKHART          N/A     70  54  57 NE9         N/A
GARDEN CITY    CLOUDY    65  57  75 SE6       30.12F
6HR MIN TEMP:  54; 6HR MAX TEMP:  65;

GREAT BEND     MOSUNNY   70  59  68 S3        30.09F
LIBERAL        CLOUDY    61  57  88 E6        30.14F
PRATT          MOSUNNY   70  59  68 SW5       30.11F
$$

KSZ066>073-081>083-090>101-231900-
SOUTHEAST KANSAS

CITY           SKY/WX    TMP DP  RH WIND       PRES   REMARKS
CHANUTE        CLOUDY    64  58  80 S12       30.13F
6HR MIN TEMP:  59; 6HR MAX TEMP:  64; 6HR PCP: TRACE;

COFFEYVILLE    LGT RAIN  62  57  83 S13       30.15S
6HR MIN TEMP:  59; 6HR MAX TEMP:  63; 6HR PCP: TRACE;

HUTCHINSON     PTSUNNY   72  59  63 VRB3      30.09F
6HR MIN TEMP:  61; 6HR MAX TEMP:  72;

MEDICINE LODGE   N/A     68  60  75 S5        30.09F
NEWTON         CLOUDY    66  57  72 S9        30.12F
PARSONS        CLOUDY    64  58  80 S9        30.15F
6HR MIN TEMP:  59; 6HR MAX TEMP:  64;

WICHITA INTL   CLOUDY    69  60  73 S9        30.10F
6HR MIN TEMP:  62; 6HR MAX TEMP:  69;

WICHITA JABRA  CLOUDY    67  60  78 S7        30.10F
6HR MIN TEMP:  61; 6HR MAX TEMP:  67;

WICHITA MCCONL CLOUDY    67  65  95 S8        30.11F
WINFIELD       CLOUDY    68  60  75 SW7       30.12F
6HR MIN TEMP:  60; 6HR MAX TEMP:  68;

$$

KSZ007>012-019>026-033>040-048>060-102>105-231900-
NORTHEAST KANSAS

CITY           SKY/WX    TMP DP  RH WIND       PRES   REMARKS
CONCORDIA      MOSUNNY   70  59  68 W3        30.08F
6HR MIN TEMP:  60; 6HR MAX TEMP:  71;

EMPORIA        CLOUDY    66  61  84 SW10      30.10F
6HR MIN TEMP:  61; 6HR MAX TEMP:  66;

LAWRENCE       CLOUDY    63  59  87 SW9       30.10F FOG
6HR MIN TEMP:  59; 6HR MAX TEMP:  65; 6HR PCP:  0.03;

MANHATTAN      MOSUNNY   70  60  70 CALM      30.07F
6HR MIN TEMP:  61; 6HR MAX TEMP:  72; 6HR PCP: TRACE;

MARYSVILLE     SUNNY     70  59  68 W6        30.07F
OLATHE IND     CLOUDY    63  59  87 S10       30.11F
6HR MIN TEMP:  57; 6HR MAX TEMP:  64; 6HR PCP:  0.06;

OLATHE EXE     CLOUDY    63  59  87 SW7       30.11S
6HR MIN TEMP:  57; 6HR MAX TEMP:  64; 6HR PCP:  0.07;

SALINA         MOSUNNY   72  60  66 SW6       30.08F
6HR MIN TEMP:  62; 6HR MAX TEMP:  72;

TOPEKA BILLARD CLOUDY    68  62  81 SW8       30.08F
6HR MIN TEMP:  61; 6HR MAX TEMP:  68; 6HR PCP:  0.01;

TOPEKA FORBES  CLOUDY    67  61  81 SW6       30.08F
6HR MIN TEMP:  60; 6HR MAX TEMP:  67; 6HR PCP:  0.01;

$$



USA.gov is the U.S. government's official web portal to all federal, state and local government web resources and services.